Location: Pasarilla del Rebollar
(40.6790°N, 5.0062°W)
Time: 12:01:31
(UTC+00:00)

NOAA 11 - Pass Details

Date: 22 April 2026
Orbit: 831 x 848 km, 98.6° (Epoch: 16 May)

Event Time Altitude Azimuth Distance (km) Brightness Sun altitude
Rises 03:05:33 0° 8° (N) 3,384 8.1 -24.6°
Reaches altitude 10° 03:07:57 10° 4° (N) 2,447 7.2 -24.2°
Maximum altitude 03:13:13 54° 289° (WNW) 1,005 4.3 -23.5°
Enters shadow 03:13:51 51° 263° (W) 1,040 4.3 -23.4°
